RH
26 29 27 27 32 37 45 49 55 57 54 52 53 53 52 50 48 45 43 40 38 36 33 29 28 27 24 22 21 19 19 19 18 19 21 22 28 37 43 45 48 54 60 65
21 29 35 35 35 37 41 50 60 60 59 56 57 56 54 49 45 43 40 36 34 33 32 33 32 28 26 24 21 20 19 19 19 20 22 24 26 30 36 44 46 49 54 61
18 17 20 30 35 40 44 43 51 50 54 53 51 51 48 44 41 38 35 34 32 30 29 26 24 23 21 21 22 23 24 22 21 20 21 23 25 32 31 36 41 46 53 58
22 22 19 19 22 23 26 31 38 41 39 41 43 32 40 37 35 32 33 29 26 25 23 21 20 19 19 19 18 19 26 28 28 27 25 24 24 24 26 34 36 42 47 50
19 20 22 24 22 23 26 27 27 26 28 30 32 33 33 35 29 26 28 28 27 25 24 22 20 20 20 20 19 19 18 20 26 31 31 31 29 29 29 30 32 40 45 52
17 18 20 22 23 22 25 27 29 29 29 30 27 26 31 30 29 26 26 26 25 24 24 23 21 21 21 19 17 16 17 17 17 19 28 34 37 36 36 37 36 36 37 48
20 20 18 21 24 26 25 24 31 33 34 29 32 30 32 29 26 24 24 25 23 21 21 21 20 18 17 15 14 13 15 17 17 16 18 20 25 35 41 43 43 45 46 43
21 24 20 19 20 21 24 22 24 26 31 35 40 40 30 27 26 25 24 24 20 20 20 19 18 16 14 12 13 12 14 15 15 14 14 14 15 18 28 39 42 41 43 45
18 19 19 18 17 18 23 25 27 34 40 38 35 40 32 28 27 26 25 22 20 19 16 17 17 16 15 13 11 10 13 14 13 12 11 11 11 14 17 24 33 34 38 39
19 22 19 22 20 21 20 23 32 33 42 41 33 36 27 31 28 26 23 20 18 16 18 18 18 17 16 15 13 12 14 14 13 11 10 10 10 11 12 13 17 30 34 33
18 20 21 22 21 25 26 27 30 31 30 23 21 19 20 22 24 23 19 17 16 17 19 18 17 17 16 14 12 13 14 13 12 11 11 11 12 12 12 12 12 13 18 27
19 22 24 22 20 20 22 21 22 33 37 36 31 25 17 21 22 20 16 16 17 19 20 18 16 16 15 12 12 13 13 12 11 11 11 10 10 9 9 9 9 9 9 9
20 26 30 27 25 26 24 23 23 24 29 36 32 22 21 23 21 17 16 17 19 20 19 17 16 15 13 12 13 13 12 12 12 12 11 10 9 9 8 8 8 9 8 8
20 23 23 26 22 22 24 24 22 18 24 24 24 15 25 23 17 17 17 19 20 20 19 17 16 13 12 13 14 13 13 13 12 11 10 9 9 9 9 9 8 8 7 7
24 25 23 24 23 21 21 24 23 18 18 16 15 16 18 20 17 16 18 21 21 21 20 18 17 14 13 14 14 14 14 13 12 11 10 10 10 9 9 8 8 8 8 8
27 33 28 35 29 23 21 23 24 23 21 18 17 18 15 19 21 21 21 22 22 21 22 20 19 15 13 14 14 14 14 14 13 12 11 11 10 10 9 9 8 8 8 8
27 33 34 37 30 28 29 20 23 22 21 20 20 15 15 19 22 21 22 23 23 22 22 21 22 16 13 14 14 15 15 15 14 13 11 11 11 10 9 9 8 8 8 8
33 30 32 41 32 42 21 18 18 19 19 19 17 16 16 16 18 21 22 21 23 23 23 22 23 18 13 14 15 15 16 16 15 13 12 12 11 11 10 9 9 8 9 9
38 37 44 43 38 24 18 18 19 21 17 17 18 17 17 18 21 22 22 21 21 22 23 22 23 20 13 14 16 16 17 17 16 14 13 13 12 12 11 10 10 10 10 11
45 42 43 50 40 38 20 19 18 17 19 14 16 17 18 20 22 20 19 22 23 23 24 24 23 21 15 15 16 17 17 17 16 16 15 14 14 13 13 12 11 12 13 14
52 53 51 51 42 28 20 21 20 21 18 17 17 17 19 18 15 16 17 21 23 23 24 25 23 22 18 17 18 18 18 17 18 18 18 16 15 15 14 13 13 14 14 14
48 52 52 53 48 37 22 23 22 19 18 18 18 17 17 17 17 16 18 21 22 23 24 26 24 24 20 18 19 19 19 19 19 20 20 19 17 16 14 14 13 14 15 14
50 43 47 41 36 28 25 22 22 20 20 19 19 17 17 19 18 17 19 20 22 24 25 27 26 24 21 20 20 21 21 21 21 22 22 21 19 17 16 15 15 15 15 15
49 45 43 39 34 30 28 25 24 23 22 21 21 20 18 18 18 19 19 22 24 25 26 28 27 25 22 20 21 22 23 24 24 24 24 23 20 18 16 15 15 15 16 15
47 45 42 40 35 33 31 28 28 27 24 22 22 21 21 19 18 19 21 23 25 26 27 29 29 25 23 21 22 24 25 26 26 26 26 24 21 19 17 15 13 13 14 15
56 50 44 42 34 32 32 32 32 29 26 24 24 23 23 22 20 21 23 25 26 27 28 30 29 24 23 22 23 25 26 27 27 27 27 25 22 20 18 16 14 13 12 12